Weather History for LICZ - October, 2012

Change the Weather History Date:

Tuesday, October 30, 2012

  Actual Average Record
Temperature  
Mean Temperature 60 °F -  
Max Temperature 72 °F 69 °F 80 °F (1999)
Min Temperature 48 °F 49 °F 48 °F (2010)
Degree Days  
Heating Degree Days 5    
Growing Degree Days 10 (Base 50)    
Moisture  
Dew Point 46 °F    
Average Humidity 66    
Maximum Humidity 100    
Minimum Humidity 22    
Precipitation  
Precipitation 0.00 in 0.06 in - ()
Sea Level Pressure  
Sea Level Pressure 29.91 in    
Wind  
Wind Speed 7 mph ()    
Max Wind Speed 15 mph    
Max Gust Speed -    
Visibility 8.4 miles    
Events      
Averages and records for this station are not official NWS values.
T = Trace of Precipitation, MM = Missing Value Source: Averaged Metar Reports

Daily Weather History Graph

Daily Weather History Graph

Search for Another Location

Airport or City:

Trip Planner

Search our weather history database for the weather conditions in past years. The results will help you decide how hot, cold, wet, or windy it might be!

Date:

Astronomy

Oct. 30, 2012 Rise Set
Actual Time 6:23 AM CET 5:04 PM CET
Civil Twilight 5:56 AM CET 5:31 PM CET
Nautical Twilight 5:25 AM CET 6:01 PM CET
Astronomical Twilight 4:55 AM CET 6:32 PM CET
Moon 5:24 PM CET (10/30) 6:52 AM CET (10/30)
Length of Visible Light 11h 34m
Length of Day
10h 40m
Full, 100% of the Moon is Illuminated
Oct 30
Full
Nov 7
Last Quarter
Nov 13
New
Nov 20
First Quarter
Nov 28
Full

Hourly Weather History & Observations

Time (CET) Temp. Dew Point Humidity Pressure Visibility Wind Dir Wind Speed Gust Speed Precip Events Conditions
12:55 AM 53.6 °F 46.4 °F 77% 29.92 in - North - - N/A   Partly Cloudy
1:00 AM 54 °F 46 °F 65% 29.94 in 7 mi West 10.4 mph - -   Scattered Clouds
1:55 AM 50.0 °F 44.6 °F 82% 29.92 in - North - - N/A   Partly Cloudy
2:55 AM 51.8 °F 46.4 °F 82% 29.92 in - North - - N/A   Partly Cloudy
3:55 AM 51.8 °F 46.4 °F 82% 29.89 in - North - - N/A   Partly Cloudy
4:00 AM 51 °F 46 °F 77% 29.91 in 7 mi West 13.8 mph - -   Scattered Clouds
4:55 AM 50.0 °F 46.4 °F 87% 29.89 in - North - - N/A   Partly Cloudy
5:55 AM 50.0 °F 46.4 °F 87% 29.89 in - North - - N/A   Partly Cloudy
6:55 AM 51.8 °F 46.4 °F 82% 29.92 in - North - - N/A   Partly Cloudy
7:00 AM 51 °F 46 °F 77% 29.94 in 9 mi WNW 10.4 mph - -   Scattered Clouds
7:55 AM 51.8 °F 46.4 °F 82% 29.92 in - North - - N/A   Partly Cloudy
8:55 AM 57.2 °F 46.4 °F 67% 29.95 in - North - - N/A   Clear
9:55 AM 60.8 °F 44.6 °F 55% 29.95 in - North - - N/A   Clear
10:00 AM 61 °F 45 °F 44% 29.97 in 16 mi WNW 10.4 mph - -   Clear
10:55 AM 64.4 °F 44.6 °F 49% 29.95 in - North - - N/A   Clear
11:55 AM 68.0 °F 42.8 °F 40% 29.92 in - North - - N/A   Clear
12:55 PM 68.0 °F 37.4 °F 33% 29.92 in - North - - N/A   Scattered Clouds
1:00 PM 68 °F 38 °F 22% 29.92 in 17 mi WNW 15.0 mph - -   Scattered Clouds
1:55 PM 71.6 °F 37.4 °F 29% 29.89 in - North - - N/A   Partly Cloudy
2:55 PM 69.8 °F 39.2 °F 33% 29.89 in 6.2 mi NW 9.2 mph - N/A   Partly Cloudy
3:55 PM 68.0 °F 39.2 °F 35% 29.89 in 6.2 mi WNW 6.9 mph - N/A   Scattered Clouds
4:00 PM 68 °F 39 °F 24% 29.90 in 16 mi WNW 6.9 mph - -   Partly Cloudy
4:55 PM 64.4 °F 46.4 °F 52% 29.89 in 6.2 mi West 8.1 mph - N/A   Scattered Clouds
5:55 PM 60.8 °F 48.2 °F 63% 29.89 in 6.2 mi West 4.6 mph - N/A   Scattered Clouds
6:55 PM 57.2 °F 50.0 °F 77% 29.89 in 6.2 mi South 4.6 mph - N/A   Scattered Clouds
7:00 PM 58 °F 50 °F 66% 29.91 in 12 mi South 4.6 mph - -   Partly Cloudy
7:55 PM 57.2 °F 50.0 °F 77% 29.92 in 6.2 mi East 4.6 mph - N/A   Partly Cloudy
8:55 PM 57.2 °F 51.8 °F 82% 29.89 in 6.2 mi Calm Calm - N/A   Partly Cloudy
9:55 PM 55.4 °F 53.6 °F 94% 29.92 in 6.2 mi Calm Calm - N/A   Scattered Clouds
10:00 PM 55 °F 53 °F 91% 29.92 in 6 mi Calm Calm - -   Partly Cloudy
10:55 PM 53.6 °F 53.6 °F 100% 29.89 in 6.2 mi WNW 2.3 mph - N/A   Mostly Cloudy
11:55 PM 51.8 °F 51.8 °F 100% 29.89 in 6.2 mi Calm Calm - N/A   Mostly Cloudy